{"data":{"norad_id":52310,"intl_designator":"2022-041BB","name":"STARLINK-3688","alt_names":[],"object_type":"PAYLOAD","status":"ACTIVE","operator":null,"country":"US","launch_date":"2022-04-21","launch_site_code":"AFETR","launch_vehicle":null,"mission":null,"orbit_class":"UNKNOWN","rcs_meters":null,"size_class":null,"mass_kg":null,"dimensions":null,"purposes":["comms"],"wikipedia_slug":null,"has_3d_model":false,"image_url":null,"decayed_at":null,"tle_current":{"epoch":"2026-09-19T17:01:39.103968Z","epoch_age_seconds":127995,"freshness":"FRESH","line1":"1 52310U 22041BB  26262.70948037 -.00000161  00000+0  65800-5 0  9998","line2":"2 52310  53.1599 283.4528 0001288  86.6916 273.4232 15.31694415245353","mean_motion":15.31694415,"eccentricity":0.0001288,"inclination_deg":53.1599,"raan_deg":283.4528,"arg_perigee_deg":86.6916,"mean_anomaly_deg":273.4232,"bstar":6.58e-6,"rev_number":24535,"period_min":94.013530760312,"perigee_km":469.87450636928,"apogee_km":471.63878137195,"semimajor_km":6848.8936438706,"source":"CELESTRAK","updated_at":"2026-09-20T09:00:40.019977Z"}}}